,

(GMT )
Meknes

Weather History for GMFM - December, 2012

Change the Weather History Date:

Wednesday, December 5, 2012

  Actual Average Record
Temperature  
Mean Temperature 48 °F -  
Max Temperature 60 °F - - ()
Min Temperature 35 °F - - ()
Degree Days  
Heating Degree Days 18    
Moisture  
Dew Point 40 °F    
Average Humidity 71    
Maximum Humidity 93    
Minimum Humidity 42    
Precipitation  
Precipitation 0.00 in - - ()
Sea Level Pressure  
Sea Level Pressure 30.29 in    
Wind  
Wind Speed 4 mph ()    
Max Wind Speed 16 mph    
Max Gust Speed -    
Visibility 6.1 miles    
Events      
T = Trace of Precipitation, MM = Missing Value Source: Averaged Metar Reports

Daily Weather History Graph

Daily Weather History Graph

Search for Another Location

Airport or City:

Trip Planner

Search our weather history database for the weather conditions in past years. The results will help you decide how hot, cold, wet, or windy it might be!

Date:

Astronomy

Dec. 05, 2012 Rise Set
Actual Time 7:12 AM WET 5:12 PM WET
Civil Twilight 6:45 AM WET 5:40 PM WET
Nautical Twilight 6:14 AM WET 6:11 PM WET
Astronomical Twilight 5:43 AM WET 6:41 PM WET
Moon 11:34 PM WET (12/5) 11:41 AM WET (12/5)
Length of Visible Light 10h 55m
Length of Day
10h 00m
Waning Gibbous, 62% of the Moon is Illuminated
Dec 5
Waning Gibbous
Dec 6
Last Quarter
Dec 13
New
Dec 20
First Quarter
Dec 28
Full

Hourly Weather History & Observations

Time (WET) Temp. Windchill Dew Point Humidity Pressure Visibility Wind Dir Wind Speed Gust Speed Precip Events Conditions
12:00 AM 42 °F - 37 °F 75% 30.42 in 6 mi SSE 4.6 mph - -  
12:00 AM 42.8 °F 40.1 °F 37.4 °F 81% 30.36 in - SSE 4.6 mph - N/A   Clear
1:00 AM 41.0 °F - 37.4 °F 87% 30.36 in - Calm Calm - N/A   Clear
2:00 AM 41.0 °F 38.0 °F 37.4 °F 87% 30.33 in - SSE 4.6 mph - N/A   Clear
3:00 AM 42 °F - 35 °F 70% 30.37 in 6 mi SSE 16.1 mph - -  
3:00 AM 42.8 °F 40.1 °F 35.6 °F 76% 30.33 in - SSE 4.6 mph - N/A   Clear
4:00 AM 37.4 °F - 33.8 °F 87% 30.30 in - Calm Calm - N/A   Clear
5:00 AM 42.8 °F 38.6 °F 33.8 °F 70% 30.30 in - SSE 6.9 mph - N/A   Clear
6:00 AM 42.8 °F - 32.0 °F 66% 30.30 in - Calm Calm - N/A   Clear
7:00 AM 35.6 °F - 32.0 °F 87% 30.30 in - East 2.3 mph - N/A   Clear
8:00 AM 39.2 °F 35.9 °F 35.6 °F 87% 30.30 in - South 4.6 mph - N/A   Clear
9:00 AM 48 °F - 37 °F 56% 30.34 in 6 mi SE 3.5 mph - -   Partly Cloudy
9:00 AM 48.2 °F - 37.4 °F 66% 30.30 in - SE 3.5 mph - N/A   Clear
10:00 AM 51.8 °F - 39.2 °F 62% 30.33 in - SE 2.3 mph - N/A   Clear
11:00 AM 55.4 °F - 37.4 °F 51% 30.30 in - SE 2.3 mph - N/A   Clear
12:00 PM 58 °F - 41 °F 42% 30.29 in 6 mi North 3.5 mph - -   Scattered Clouds
12:00 PM 57.2 °F - 41.0 °F 55% 30.30 in - North 3.5 mph - N/A   Clear
1:00 PM 59.0 °F - 42.8 °F 55% 30.27 in 6.2 mi NNW 2.3 mph - N/A   Scattered Clouds
3:00 PM 59 °F - 43 °F 44% 30.20 in 6 mi NNE 2.3 mph - -   Partly Cloudy
3:00 PM 59.0 °F - 42.8 °F 55% 30.21 in 6.2 mi NNE 2.3 mph - N/A   Scattered Clouds
4:00 PM 59.0 °F - 44.6 °F 59% 30.24 in 6.2 mi North 2.3 mph - N/A   Scattered Clouds
5:00 PM 55.4 °F - 44.6 °F 67% 30.21 in 6.2 mi North 2.3 mph - N/A   Scattered Clouds
6:00 PM 52 °F - 45 °F 71% 30.22 in 6 mi NE 2.3 mph - -   Scattered Clouds
6:00 PM 51.8 °F - 44.6 °F 76% 30.21 in 6.2 mi NE 2.3 mph - N/A   Scattered Clouds
7:00 PM 50.0 °F - 44.6 °F 82% 30.24 in 6.2 mi ESE 4.6 mph - N/A   Scattered Clouds
8:00 PM 48.2 °F - 44.6 °F 87% 30.24 in - ESE 5.8 mph - N/A   Clear
9:00 PM 47 °F - 44 °F 84% 30.26 in 6 mi ESE 5.8 mph - -  
9:00 PM 46.4 °F 43.5 °F 44.6 °F 93% 30.24 in - ESE 5.8 mph - N/A   Clear
10:00 PM 46.4 °F 44.3 °F 42.8 °F 87% 30.24 in - ESE 4.6 mph - N/A   Clear